,,,PA_Meas_PMT16A,,PR_Meas_QMR101_102,,RH_Meas_QMH101,,SR_Meas_QMS101,,TA_Meas_QMH101,,GenWind,,GenWind,
date,time,status,PA,status,PR,status,RH,status,SR,status,TA,status,DirAvg,status,SpdAvg,
2012-04-29, 00:00:04,VALID,1005.65,VALID,0,VALID,86.9845,VALID,0,VALID,25.6876,VALID,22,VALID,0,
2012-04-29, 00:01:04,VALID,1005.63,VALID,0,VALID,87.2286,VALID,0.0815089,VALID,25.6292,VALID,22,VALID,0,
2012-04-29, 00:02:04,VALID,1005.6,VALID,0,VALID,87.427,VALID,0,VALID,25.6311,VALID,22,VALID,0,
2012-04-29, 00:03:04,VALID,1005.64,VALID,0,VALID,87.5795,VALID,0.0815089,VALID,25.5707,VALID,22,VALID,0,
2012-04-29, 00:04:04,VALID,1005.59,VALID,0,VALID,87.6711,VALID,0.0815089,VALID,25.5513,VALID,22,VALID,0,
2012-04-29, 00:05:04,VALID,1005.6,VALID,0,VALID,87.7474,VALID,0.0815089,VALID,25.5123,VALID,22,VALID,0,
2012-04-29, 00:06:04,VALID,1005.56,VALID,0,VALID,87.9686,VALID,0.0815089,VALID,25.5123,VALID,22,VALID,0,
2012-04-29, 00:07:04,VALID,1005.53,VALID,0,VALID,88.3272,VALID,0,VALID,25.5142,VALID,22,VALID,0,
2012-04-29, 00:08:04,VALID,1005.52,VALID,0,VALID,88.3424,VALID,0.0815089,VALID,25.4734,VALID,22,VALID,0,
2012-04-29, 00:09:04,VALID,1005.52,VALID,0,VALID,88.3653,VALID,0,VALID,25.4344,VALID,22,VALID,0,
2012-04-29, 00:10:04,VALID,1005.48,VALID,0,VALID,88.64,VALID,0,VALID,25.4383,VALID,22,VALID,0,
2012-04-29, 00:11:04,VALID,1005.48,VALID,0,VALID,88.762,VALID,0,VALID,25.4169,VALID,22,VALID,0,
2012-04-29, 00:12:04,VALID,1005.46,VALID,0,VALID,88.8612,VALID,0,VALID,25.3974,VALID,22,VALID,0,
2012-04-29, 00:13:04,VALID,1005.42,VALID,0,VALID,89.0901,VALID,0,VALID,25.3779,VALID,22,VALID,0,
2012-04-29, 00:14:04,VALID,1005.41,VALID,0,VALID,89.2045,VALID,0,VALID,25.3779,VALID,22,VALID,0,
2012-04-29, 00:15:04,VALID,1005.39,VALID,0,VALID,89.3723,VALID,0,VALID,25.3565,VALID,22,VALID,0,
2012-04-29, 00:16:04,VALID,1005.38,VALID,0,VALID,89.3876,VALID,0,VALID,25.3798,VALID,22,VALID,0,
2012-04-29, 00:17:04,VALID,1005.37,VALID,0,VALID,89.5554,VALID,0,VALID,25.3584,VALID,22,VALID,0,
2012-04-29, 00:18:04,VALID,1005.37,VALID,0,VALID,89.3418,VALID,0,VALID,25.339,VALID,22,VALID,0,
2012-04-29, 00:19:04,VALID,1005.36,VALID,0,VALID,89.4868,VALID,0,VALID,25.339,VALID,22,VALID,0,
2012-04-29, 00:20:04,VALID,1005.34,VALID,0,VALID,89.5249,VALID,0,VALID,25.3584,VALID,22,VALID,0,
2012-04-29, 00:21:04,VALID,1005.35,VALID,0,VALID,89.4105,VALID,0,VALID,25.3195,VALID,22,VALID,0,
2012-04-29, 00:22:04,VALID,1005.34,VALID,0,VALID,89.6699,VALID,0,VALID,25.3409,VALID,22,VALID,0,
2012-04-29, 00:23:04,VALID,1005.3,VALID,0,VALID,89.7919,VALID,0,VALID,25.3,VALID,22,VALID,0,
2012-04-29, 00:24:04,VALID,1005.27,VALID,0,VALID,89.9216,VALID,0,VALID,25.3019,VALID,22,VALID,0,
2012-04-29, 00:25:04,VALID,1005.26,VALID,0,VALID,89.8911,VALID,0,VALID,25.2806,VALID,22,VALID,0,
2012-04-29, 00:26:04,VALID,1005.23,VALID,0,VALID,90.0055,VALID,0,VALID,25.2611,VALID,22,VALID,0,
2012-04-29, 00:27:04,VALID,1005.23,VALID,0,VALID,90.2191,VALID,0,VALID,25.263,VALID,22,VALID,0,
2012-04-29, 00:28:04,VALID,1005.24,VALID,0,VALID,90.2802,VALID,0,VALID,25.2611,VALID,22,VALID,0,
2012-04-29, 00:29:04,VALID,1005.19,VALID,0,VALID,90.2725,VALID,0,VALID,25.263,VALID,22,VALID,0,
2012-04-29, 00:30:04,VALID,1005.16,VALID,0,VALID,90.5014,VALID,0,VALID,25.224,VALID,22,VALID,0,
2012-04-29, 00:31:04,VALID,1005.15,VALID,0,VALID,90.6998,VALID,0,VALID,25.1832,VALID,22,VALID,0,
2012-04-29, 00:32:04,VALID,1005.12,VALID,0,VALID,90.7455,VALID,0,VALID,25.1832,VALID,22,VALID,0,
2012-04-29, 00:33:04,VALID,1005.12,VALID,0,VALID,90.7455,VALID,0,VALID,25.1637,VALID,22,VALID,0,
2012-04-29, 00:34:04,VALID,1005.09,VALID,0,VALID,90.7532,VALID,0,VALID,25.1442,VALID,22,VALID,0,
2012-04-29, 00:35:04,VALID,1005.08,VALID,0,VALID,90.8295,VALID,0,VALID,25.1461,VALID,22,VALID,0,
2012-04-29, 00:36:04,VALID,1005.03,VALID,0,VALID,90.7532,VALID,0,VALID,25.1053,VALID,22,VALID,0,
2012-04-29, 00:37:04,VALID,1005.03,VALID,0,VALID,90.8295,VALID,0,VALID,25.0644,VALID,22,VALID,0,
2012-04-29, 00:38:04,VALID,1005.02,VALID,0,VALID,90.9057,VALID,0,VALID,25.0858,VALID,22,VALID,0,
2012-04-29, 00:39:04,VALID,1004.98,VALID,0,VALID,90.9439,VALID,0,VALID,25.1072,VALID,22,VALID,0,
2012-04-29, 00:40:04,VALID,1004.96,VALID,0,VALID,90.8447,VALID,0,VALID,25.0682,VALID,22,VALID,0,
2012-04-29, 00:41:04,VALID,1004.96,VALID,0,VALID,90.8752,VALID,0,VALID,25.0469,VALID,22,VALID,0,
2012-04-29, 00:42:04,VALID,1004.95,VALID,0,VALID,90.9744,VALID,0,VALID,25.0663,VALID,22,VALID,0,
2012-04-29, 00:43:04,VALID,1004.92,VALID,0,VALID,91.0583,VALID,0,VALID,25.0858,VALID,14,VALID,0,
2012-04-29, 00:44:04,VALID,1004.9,VALID,0,VALID,90.982,VALID,0,VALID,25.1053,VALID,12,VALID,0,
2012-04-29, 00:45:04,VALID,1004.86,VALID,0,VALID,90.9057,VALID,0,VALID,25.0644,VALID,12,VALID,0,
2012-04-29, 00:46:04,VALID,1004.86,VALID,0,VALID,90.8676,VALID,0,VALID,25.1072,VALID,12,VALID,0,
2012-04-29, 00:47:04,VALID,1004.86,VALID,0,VALID,90.8295,VALID,0,VALID,25.0663,VALID,10,VALID,0,
2012-04-29, 00:48:04,VALID,1004.86,VALID,0,VALID,90.8142,VALID,0,VALID,25.0663,VALID,10,VALID,0,
2012-04-29, 00:49:04,VALID,1004.88,VALID,0,VALID,90.8142,VALID,0,VALID,25.0858,VALID,350,VALID,0.448438,
2012-04-29, 00:50:04,VALID,1004.89,VALID,0,VALID,90.8218,VALID,0,VALID,25.0663,VALID,350,VALID,0.450781,
2012-04-29, 00:51:04,VALID,1004.89,VALID,0,VALID,90.7532,VALID,0,VALID,25.0858,VALID,350,VALID,0.507813,
2012-04-29, 00:52:04,VALID,1004.9,VALID,0,VALID,90.7455,VALID,0,VALID,25.0858,VALID,350,VALID,0.581641,
2012-04-29, 00:53:04,VALID,1004.9,VALID,0,VALID,90.7684,VALID,0,VALID,25.0858,VALID,350,VALID,0.569922,
2012-04-29, 00:54:04,VALID,1004.9,VALID,0,VALID,90.7532,VALID,0,VALID,25.0663,VALID,350,VALID,0.693359,
2012-04-29, 00:55:04,VALID,1004.88,VALID,0,VALID,90.8295,VALID,0,VALID,25.045,VALID,351,VALID,0.674219,
2012-04-29, 00:56:04,VALID,1004.88,VALID,0,VALID,90.8676,VALID,0,VALID,25.0274,VALID,351,VALID,0.585547,
2012-04-29, 00:57:04,VALID,1004.88,VALID,0,VALID,90.8905,VALID,0,VALID,24.9885,VALID,351,VALID,0.594531,
2012-04-29, 00:58:04,VALID,1004.86,VALID,0,VALID,90.9363,VALID,0,VALID,24.969,VALID,352,VALID,0.835547,
2012-04-29, 00:59:04,VALID,1004.87,VALID,0,VALID,90.9439,VALID,0,VALID,24.969,VALID,352,VALID,0.630078,
2012-04-29, 01:00:04,VALID,1004.89,VALID,0,VALID,90.9744,VALID,0,VALID,24.9495,VALID,351,VALID,0.628125,
2012-04-29, 01:01:04,VALID,1004.91,VALID,0,VALID,91.0278,VALID,0,VALID,24.93,VALID,347,VALID,0.399609,
2012-04-29, 01:02:04,VALID,1004.9,VALID,0,VALID,91.1117,VALID,0,VALID,24.93,VALID,347,VALID,0.265234,
2012-04-29, 01:03:04,VALID,1004.93,VALID,0,VALID,91.0812,VALID,0,VALID,24.9106,VALID,347,VALID,0.361719,
2012-04-29, 01:04:04,VALID,1004.92,VALID,0,VALID,91.1804,VALID,0,VALID,24.9514,VALID,347,VALID,0.296094,
2012-04-29, 01:05:04,VALID,1004.91,VALID,0,VALID,91.1346,VALID,0,VALID,24.9106,VALID,347,VALID,0.234375,
2012-04-29, 01:06:04,VALID,1004.9,VALID,0,VALID,91.1575,VALID,0,VALID,24.9319,VALID,347,VALID,0.112891,
2012-04-29, 01:07:04,VALID,1004.87,VALID,0,VALID,91.1804,VALID,0,VALID,24.8911,VALID,347,VALID,0.00703125,
2012-04-29, 01:08:04,VALID,1004.85,VALID,0,VALID,91.1804,VALID,0,VALID,24.8735,VALID,347,VALID,0.153125,
2012-04-29, 01:09:04,VALID,1004.84,VALID,0,VALID,91.2109,VALID,0,VALID,24.8308,VALID,347,VALID,0.0980469,
2012-04-29, 01:10:04,VALID,1004.8,VALID,0,VALID,91.2719,VALID,0.0815089,VALID,24.8308,VALID,347,VALID,0,
2012-04-29, 01:11:04,VALID,1004.81,VALID,0,VALID,91.3635,VALID,0,VALID,24.8113,VALID,347,VALID,0,
2012-04-29, 01:12:04,VALID,1004.78,VALID,0,VALID,91.4626,VALID,0.0815089,VALID,24.8327,VALID,347,VALID,0,
2012-04-29, 01:13:04,VALID,1004.79,VALID,0,VALID,91.5389,VALID,0.0815089,VALID,24.8113,VALID,347,VALID,0,
2012-04-29, 01:14:04,VALID,1004.77,VALID,0,VALID,91.5237,VALID,0.0815089,VALID,24.7919,VALID,347,VALID,0,
2012-04-29, 01:15:04,VALID,1004.76,VALID,0,VALID,91.4779,VALID,0,VALID,24.7529,VALID,347,VALID,0,
2012-04-29, 01:16:04,VALID,1004.74,VALID,0,VALID,91.6457,VALID,0,VALID,24.7529,VALID,347,VALID,0,
2012-04-29, 01:17:04,VALID,1004.75,VALID,0,VALID,91.7602,VALID,0.0815089,VALID,24.7548,VALID,347,VALID,0,
2012-04-29, 01:18:04,VALID,1004.74,VALID,0,VALID,91.7754,VALID,0,VALID,24.7372,VALID,347,VALID,0,
2012-04-29, 01:19:04,VALID,1004.69,VALID,0,VALID,91.8517,VALID,0,VALID,24.6964,VALID,347,VALID,0,
2012-04-29, 01:20:04,VALID,1004.7,VALID,0,VALID,91.9128,VALID,0,VALID,24.6769,VALID,347,VALID,0,
2012-04-29, 01:21:04,VALID,1004.71,VALID,0,VALID,91.989,VALID,0,VALID,24.6574,VALID,347,VALID,0,
2012-04-29, 01:22:04,VALID,1004.72,VALID,0,VALID,92.073,VALID,0,VALID,24.638,VALID,347,VALID,0,
2012-04-29, 01:23:04,VALID,1004.72,VALID,0,VALID,92.1721,VALID,0,VALID,24.6185,VALID,347,VALID,0,
2012-04-29, 01:24:04,VALID,1004.75,VALID,0,VALID,92.1874,VALID,0,VALID,24.599,VALID,347,VALID,0,
2012-04-29, 01:25:04,VALID,1004.78,VALID,0,VALID,92.2484,VALID,0,VALID,24.5796,VALID,347,VALID,0,
2012-04-29, 01:26:04,VALID,1004.82,VALID,0,VALID,92.34,VALID,0,VALID,24.5796,VALID,347,VALID,0,
2012-04-29, 01:27:04,VALID,1004.8,VALID,0,VALID,92.401,VALID,0,VALID,24.5601,VALID,347,VALID,0,
2012-04-29, 01:28:04,VALID,1004.85,VALID,0,VALID,92.5002,VALID,0,VALID,24.5601,VALID,347,VALID,0,
2012-04-29, 01:29:04,VALID,1004.83,VALID,0,VALID,92.5917,VALID,0,VALID,24.5388,VALID,347,VALID,0,
2012-04-29, 01:30:04,VALID,1004.83,VALID,0,VALID,92.5841,VALID,0,VALID,24.5406,VALID,347,VALID,0,
2012-04-29, 01:31:04,VALID,1004.82,VALID,0,VALID,92.6222,VALID,0,VALID,24.5212,VALID,347,VALID,0,
2012-04-29, 01:32:04,VALID,1004.83,VALID,0,VALID,92.6375,VALID,0,VALID,24.5017,VALID,347,VALID,0,
2012-04-29, 01:33:04,VALID,1004.83,VALID,0,VALID,92.6985,VALID,0,VALID,24.5017,VALID,347,VALID,0,
2012-04-29, 01:34:04,VALID,1004.8,VALID,0,VALID,92.7443,VALID,0,VALID,24.5017,VALID,347,VALID,0,
2012-04-29, 01:35:04,VALID,1004.79,VALID,0,VALID,92.729,VALID,0,VALID,24.4822,VALID,347,VALID,0,
2012-04-29, 01:36:04,VALID,1004.79,VALID,0,VALID,92.7824,VALID,0,VALID,24.4628,VALID,347,VALID,0,
2012-04-29, 01:37:04,VALID,1004.76,VALID,0,VALID,92.8358,VALID,0,VALID,24.4433,VALID,347,VALID,0,
2012-04-29, 01:38:04,VALID,1004.76,VALID,0,VALID,92.8816,VALID,0,VALID,24.4238,VALID,347,VALID,0,
2012-04-29, 01:39:04,VALID,1004.73,VALID,0,VALID,93.0189,VALID,0,VALID,24.422,VALID,347,VALID,0,
2012-04-29, 01:40:04,VALID,1004.71,VALID,0,VALID,93.0342,VALID,0,VALID,24.4238,VALID,347,VALID,0,
2012-04-29, 01:41:04,VALID,1004.68,VALID,0,VALID,93.0723,VALID,0,VALID,24.4025,VALID,347,VALID,0,
2012-04-29, 01:42:04,VALID,1004.69,VALID,0,VALID,93.1029,VALID,0,VALID,24.4238,VALID,347,VALID,0,
2012-04-29, 01:43:04,VALID,1004.68,VALID,0,VALID,93.1029,VALID,0,VALID,24.4025,VALID,347,VALID,0,
2012-04-29, 01:44:04,VALID,1004.64,VALID,0,VALID,93.1181,VALID,0,VALID,24.4433,VALID,347,VALID,0,
2012-04-29, 01:45:04,VALID,1004.6,VALID,0,VALID,93.1563,VALID,0,VALID,24.4025,VALID,347,VALID,0,
2012-04-29, 01:46:04,VALID,1004.6,VALID,0,VALID,93.1563,VALID,0.0815089,VALID,24.4433,VALID,347,VALID,0,
2012-04-29, 01:47:04,VALID,1004.59,VALID,0,VALID,93.1715,VALID,0,VALID,24.422,VALID,347,VALID,0,
2012-04-29, 01:48:04,VALID,1004.58,VALID,0,VALID,93.1944,VALID,0,VALID,24.4433,VALID,347,VALID,0,
2012-04-29, 01:49:04,VALID,1004.57,VALID,0,VALID,93.2097,VALID,0,VALID,24.4822,VALID,347,VALID,0,
2012-04-29, 01:50:04,VALID,1004.56,VALID,0,VALID,93.1868,VALID,0,VALID,24.4822,VALID,347,VALID,0,
2012-04-29, 01:51:04,VALID,1004.55,VALID,0,VALID,93.2325,VALID,0,VALID,24.5017,VALID,347,VALID,0,
2012-04-29, 01:52:04,VALID,1004.54,VALID,0,VALID,93.2249,VALID,0,VALID,24.5212,VALID,347,VALID,0,
2012-04-29, 01:53:04,VALID,1004.55,VALID,0,VALID,93.202,VALID,0,VALID,24.5017,VALID,347,VALID,0,
2012-04-29, 01:54:04,VALID,1004.56,VALID,0,VALID,93.1486,VALID,0,VALID,24.4998,VALID,347,VALID,0,
2012-04-29, 01:55:04,VALID,1004.55,VALID,0,VALID,93.1257,VALID,0,VALID,24.4998,VALID,347,VALID,0,
2012-04-29, 01:56:04,VALID,1004.52,VALID,0,VALID,93.141,VALID,0,VALID,24.5193,VALID,347,VALID,0,
2012-04-29, 01:57:04,VALID,1004.51,VALID,0,VALID,93.1181,VALID,0,VALID,24.5193,VALID,347,VALID,0,
2012-04-29, 01:58:04,VALID,1004.5,VALID,0,VALID,93.0952,VALID,0,VALID,24.5406,VALID,347,VALID,0,
2012-04-29, 01:59:04,VALID,1004.54,VALID,0,VALID,93.0418,VALID,0,VALID,24.5406,VALID,347,VALID,0,
2012-04-29, 02:00:04,VALID,1004.49,VALID,0,VALID,92.9961,VALID,0,VALID,24.5601,VALID,347,VALID,0,
2012-04-29, 02:01:04,VALID,1004.51,VALID,0,VALID,92.9579,VALID,0,VALID,24.5601,VALID,347,VALID,0,
2012-04-29, 02:02:04,VALID,1004.49,VALID,0,VALID,92.9732,VALID,0,VALID,24.5796,VALID,347,VALID,0,
2012-04-29, 02:03:04,VALID,1004.5,VALID,0,VALID,92.9503,VALID,0,VALID,24.5777,VALID,347,VALID,0,
2012-04-29, 02:04:04,VALID,1004.47,VALID,0,VALID,92.9045,VALID,0,VALID,24.599,VALID,347,VALID,0,
2012-04-29, 02:05:04,VALID,1004.49,VALID,0,VALID,92.8892,VALID,0,VALID,24.5972,VALID,347,VALID,0,
2012-04-29, 02:06:04,VALID,1004.49,VALID,0,VALID,92.8511,VALID,0,VALID,24.6185,VALID,347,VALID,0,
2012-04-29, 02:07:04,VALID,1004.46,VALID,0,VALID,92.813,VALID,0,VALID,24.6166,VALID,347,VALID,0,
2012-04-29, 02:08:04,VALID,1004.46,VALID,0,VALID,92.7519,VALID,0,VALID,24.6166,VALID,347,VALID,0,
2012-04-29, 02:09:04,VALID,1004.48,VALID,0,VALID,92.7443,VALID,0,VALID,24.6361,VALID,347,VALID,0,
2012-04-29, 02:10:04,VALID,1004.48,VALID,0,VALID,92.7519,VALID,0,VALID,24.6769,VALID,347,VALID,0,
2012-04-29, 02:11:04,VALID,1004.46,VALID,0,VALID,92.6528,VALID,0,VALID,24.6556,VALID,347,VALID,0,
2012-04-29, 02:12:04,VALID,1004.48,VALID,0,VALID,92.5841,VALID,0,VALID,24.675,VALID,347,VALID,0,
2012-04-29, 02:13:04,VALID,1004.45,VALID,0,VALID,92.6528,VALID,0.0815089,VALID,24.7159,VALID,347,VALID,0,
2012-04-29, 02:14:04,VALID,1004.45,VALID,0,VALID,92.5688,VALID,0,VALID,24.675,VALID,347,VALID,0,
2012-04-29, 02:15:04,VALID,1004.45,VALID,0,VALID,92.5307,VALID,0,VALID,24.6964,VALID,347,VALID,0,
2012-04-29, 02:16:04,VALID,1004.4,VALID,0,VALID,92.5307,VALID,0,VALID,24.6556,VALID,347,VALID,0,
2012-04-29, 02:17:04,VALID,1004.41,VALID,0,VALID,92.546,VALID,0,VALID,24.6556,VALID,347,VALID,0,
2012-04-29, 02:18:04,VALID,1004.42,VALID,0,VALID,92.5765,VALID,0,VALID,24.6574,VALID,347,VALID,0,
2012-04-29, 02:19:04,VALID,1004.44,VALID,0,VALID,92.6146,VALID,0,VALID,24.6556,VALID,347,VALID,0,
2012-04-29, 02:20:04,VALID,1004.4,VALID,0,VALID,92.5383,VALID,0,VALID,24.6361,VALID,347,VALID,0,
2012-04-29, 02:21:04,VALID,1004.44,VALID,0,VALID,92.5993,VALID,0,VALID,24.6361,VALID,347,VALID,0,
2012-04-29, 02:22:04,VALID,1004.45,VALID,0,VALID,92.6146,VALID,0,VALID,24.6166,VALID,347,VALID,0,
2012-04-29, 02:23:04,VALID,1004.47,VALID,0,VALID,92.5841,VALID,0,VALID,24.6166,VALID,347,VALID,0,
2012-04-29, 02:24:04,VALID,1004.48,VALID,0,VALID,92.6222,VALID,0,VALID,24.5972,VALID,347,VALID,0,
2012-04-29, 02:25:04,VALID,1004.49,VALID,0,VALID,92.668,VALID,0,VALID,24.5972,VALID,347,VALID,0,
2012-04-29, 02:26:04,VALID,1004.46,VALID,0,VALID,92.6985,VALID,0,VALID,24.6166,VALID,299,VALID,0.741016,
2012-04-29, 02:27:04,VALID,1004.45,VALID,0,VALID,92.6528,VALID,0,VALID,24.6574,VALID,299,VALID,0.297266,
2012-04-29, 02:28:04,VALID,1004.47,VALID,0,VALID,92.5917,VALID,0,VALID,24.6769,VALID,299,VALID,0.0890625,
2012-04-29, 02:29:04,VALID,1004.43,VALID,0,VALID,92.4849,VALID,0,VALID,24.675,VALID,299,VALID,0.163672,
2012-04-29, 02:30:04,VALID,1004.44,VALID,0,VALID,92.4086,VALID,0,VALID,24.675,VALID,299,VALID,0.194141,
2012-04-29, 02:31:04,VALID,1004.43,VALID,0,VALID,92.3247,VALID,0,VALID,24.6556,VALID,299,VALID,0,
2012-04-29, 02:32:04,VALID,1004.42,VALID,0,VALID,92.3171,VALID,0,VALID,24.6769,VALID,299,VALID,0,
2012-04-29, 02:33:04,VALID,1004.41,VALID,0,VALID,92.34,VALID,0,VALID,24.6574,VALID,299,VALID,0,
2012-04-29, 02:34:04,VALID,1004.44,VALID,0,VALID,92.401,VALID,0,VALID,24.6574,VALID,299,VALID,0,
2012-04-29, 02:35:04,VALID,1004.45,VALID,0,VALID,92.4163,VALID,0,VALID,24.6166,VALID,299,VALID,0,
2012-04-29, 02:36:04,VALID,1004.46,VALID,0,VALID,92.4468,VALID,0.0815089,VALID,24.6166,VALID,299,VALID,0,
2012-04-29, 02:37:04,VALID,1004.44,VALID,0,VALID,92.4391,VALID,0,VALID,24.5972,VALID,299,VALID,0,
2012-04-29, 02:38:04,VALID,1004.47,VALID,0,VALID,92.4391,VALID,0,VALID,24.5777,VALID,299,VALID,0,
2012-04-29, 02:39:04,VALID,1004.49,VALID,0,VALID,92.4697,VALID,0,VALID,24.5777,VALID,299,VALID,0,
2012-04-29, 02:40:04,VALID,1004.5,VALID,0,VALID,92.4925,VALID,0,VALID,24.5582,VALID,299,VALID,0,
2012-04-29, 02:41:04,VALID,1004.5,VALID,0,VALID,92.4773,VALID,0,VALID,24.5601,VALID,299,VALID,0,
2012-04-29, 02:42:04,VALID,1004.47,VALID,0,VALID,92.4773,VALID,0,VALID,24.5406,VALID,299,VALID,0,
2012-04-29, 02:43:04,VALID,1004.48,VALID,0,VALID,92.5917,VALID,0,VALID,24.5406,VALID,299,VALID,0,
2012-04-29, 02:44:04,VALID,1004.49,VALID,0,VALID,92.6451,VALID,0.0815089,VALID,24.5406,VALID,299,VALID,0,
2012-04-29, 02:45:04,VALID,1004.45,VALID,0,VALID,92.6756,VALID,0,VALID,24.5193,VALID,299,VALID,0,
2012-04-29, 02:46:04,VALID,1004.46,VALID,0,VALID,92.6985,VALID,0,VALID,24.5212,VALID,299,VALID,0,
2012-04-29, 02:47:04,VALID,1004.44,VALID,0,VALID,92.7443,VALID,0,VALID,24.4804,VALID,299,VALID,0,
2012-04-29, 02:48:04,VALID,1004.44,VALID,0,VALID,92.7672,VALID,0.0815089,VALID,24.4804,VALID,299,VALID,0,
2012-04-29, 02:49:04,VALID,1004.41,VALID,0,VALID,92.7596,VALID,0,VALID,24.4609,VALID,299,VALID,0,
2012-04-29, 02:50:04,VALID,1004.41,VALID,0,VALID,92.7901,VALID,0.0815089,VALID,24.4804,VALID,299,VALID,0,
2012-04-29, 02:51:04,VALID,1004.43,VALID,0,VALID,92.8206,VALID,0,VALID,24.4609,VALID,299,VALID,0,
2012-04-29, 02:52:04,VALID,1004.41,VALID,0,VALID,92.874,VALID,0,VALID,24.4609,VALID,308,VALID,0,
2012-04-29, 02:53:04,VALID,1004.42,VALID,0,VALID,92.9274,VALID,0,VALID,24.4804,VALID,308,VALID,0,
2012-04-29, 02:54:04,VALID,1004.43,VALID,0,VALID,92.8816,VALID,0,VALID,24.5017,VALID,308,VALID,0,
2012-04-29, 02:55:04,VALID,1004.45,VALID,0,VALID,92.8587,VALID,0,VALID,24.5017,VALID,310,VALID,0,
2012-04-29, 02:56:04,VALID,1004.41,VALID,0,VALID,92.7596,VALID,0,VALID,24.5212,VALID,313,VALID,0,
2012-04-29, 02:57:04,VALID,1004.43,VALID,0,VALID,92.6299,VALID,0,VALID,24.5406,VALID,313,VALID,0,
2012-04-29, 02:58:04,VALID,1004.42,VALID,0,VALID,92.4773,VALID,0,VALID,24.5796,VALID,313,VALID,0,
2012-04-29, 02:59:04,VALID,1004.41,VALID,0,VALID,92.2332,VALID,0,VALID,24.599,VALID,312,VALID,0,
2012-04-29, 03:00:04,VALID,1004.39,VALID,0,VALID,92.0272,VALID,0,VALID,24.638,VALID,312,VALID,0,
2012-04-29, 03:01:04,VALID,1004.39,VALID,0,VALID,91.8822,VALID,0,VALID,24.6769,VALID,312,VALID,0,
2012-04-29, 03:02:04,VALID,1004.37,VALID,0,VALID,91.7373,VALID,0,VALID,24.6769,VALID,312,VALID,0,
2012-04-29, 03:03:04,VALID,1004.32,VALID,0,VALID,91.661,VALID,0,VALID,24.6769,VALID,313,VALID,0,
2012-04-29, 03:04:04,VALID,1004.34,VALID,0,VALID,91.6686,VALID,0,VALID,24.6574,VALID,313,VALID,0,
2012-04-29, 03:05:04,VALID,1004.32,VALID,0,VALID,91.7297,VALID,0,VALID,24.6398,VALID,313,VALID,0,
2012-04-29, 03:06:04,VALID,1004.31,VALID,0,VALID,91.8517,VALID,0,VALID,24.599,VALID,313,VALID,0,
2012-04-29, 03:07:04,VALID,1004.3,VALID,0,VALID,91.9051,VALID,0,VALID,24.5601,VALID,313,VALID,0,
2012-04-29, 03:08:04,VALID,1004.28,VALID,0,VALID,91.989,VALID,0,VALID,24.5406,VALID,313,VALID,0,
2012-04-29, 03:09:04,VALID,1004.27,VALID,0,VALID,92.0958,VALID,0,VALID,24.5212,VALID,313,VALID,0,
2012-04-29, 03:10:04,VALID,1004.25,VALID,0,VALID,92.2255,VALID,0,VALID,24.523,VALID,313,VALID,0,
2012-04-29, 03:11:04,VALID,1004.25,VALID,0,VALID,92.3018,VALID,0,VALID,24.4822,VALID,313,VALID,0,
2012-04-29, 03:12:04,VALID,1004.21,VALID,0,VALID,92.3705,VALID,0,VALID,24.4628,VALID,313,VALID,0,
2012-04-29, 03:13:04,VALID,1004.22,VALID,0,VALID,92.3629,VALID,0,VALID,24.4433,VALID,313,VALID,0,
2012-04-29, 03:14:04,VALID,1004.18,VALID,0,VALID,92.401,VALID,0,VALID,24.383,VALID,313,VALID,0,
2012-04-29, 03:15:04,VALID,1004.19,VALID,0,VALID,92.4468,VALID,0,VALID,24.3849,VALID,313,VALID,0,
2012-04-29, 03:16:04,VALID,1004.16,VALID,0,VALID,92.5993,VALID,0,VALID,24.3459,VALID,313,VALID,0,
2012-04-29, 03:17:04,VALID,1004.14,VALID,0,VALID,92.7367,VALID,0,VALID,24.3673,VALID,313,VALID,0,
2012-04-29, 03:18:04,VALID,1004.09,VALID,0,VALID,92.8358,VALID,0,VALID,24.3265,VALID,313,VALID,0,
2012-04-29, 03:19:04,VALID,1004.07,VALID,0,VALID,92.8816,VALID,0,VALID,24.307,VALID,313,VALID,0,
2012-04-29, 03:20:04,VALID,1004.08,VALID,0,VALID,92.9274,VALID,0,VALID,24.2875,VALID,313,VALID,0,
2012-04-29, 03:21:04,VALID,1004.11,VALID,0,VALID,92.9655,VALID,0,VALID,24.3088,VALID,313,VALID,0,
2012-04-29, 03:22:04,VALID,1004.1,VALID,0,VALID,93.0037,VALID,0,VALID,24.2486,VALID,313,VALID,0,
2012-04-29, 03:23:04,VALID,1004.11,VALID,0,VALID,93.0647,VALID,0,VALID,24.2894,VALID,313,VALID,0,
2012-04-29, 03:24:04,VALID,1004.14,VALID,0,VALID,93.1334,VALID,0,VALID,24.2468,VALID,313,VALID,0,
2012-04-29, 03:25:04,VALID,1004.13,VALID,0,VALID,93.1868,VALID,0,VALID,24.2468,VALID,313,VALID,0,
2012-04-29, 03:26:04,VALID,1004.15,VALID,0,VALID,93.2249,VALID,0.0815089,VALID,24.2662,VALID,313,VALID,0,
2012-04-29, 03:27:04,VALID,1004.16,VALID,0,VALID,93.2173,VALID,0,VALID,24.2468,VALID,313,VALID,0,
2012-04-29, 03:28:04,VALID,1004.17,VALID,0,VALID,93.2325,VALID,0,VALID,24.2681,VALID,313,VALID,0,
2012-04-29, 03:29:04,VALID,1004.21,VALID,0,VALID,93.2783,VALID,0,VALID,24.2662,VALID,313,VALID,0,
2012-04-29, 03:30:04,VALID,1004.17,VALID,0,VALID,93.3088,VALID,0,VALID,24.2681,VALID,313,VALID,0,
2012-04-29, 03:31:04,VALID,1004.18,VALID,0,VALID,93.347,VALID,0,VALID,24.2468,VALID,313,VALID,0,
2012-04-29, 03:32:04,VALID,1004.16,VALID,0,VALID,93.3699,VALID,0,VALID,24.2468,VALID,313,VALID,0,
2012-04-29, 03:33:04,VALID,1004.18,VALID,0,VALID,93.1868,VALID,0,VALID,24.2078,VALID,337,VALID,0,
2012-04-29, 03:34:04,VALID,1004.17,VALID,0,VALID,93.1257,VALID,0,VALID,24.1689,VALID,349,VALID,0,
2012-04-29, 03:35:04,VALID,1004.18,VALID,0,VALID,93.2097,VALID,0,VALID,24.13,VALID,349,VALID,0,
2012-04-29, 03:36:04,VALID,1004.2,VALID,0,VALID,93.2478,VALID,0,VALID,24.13,VALID,349,VALID,0,
2012-04-29, 03:37:04,VALID,1004.18,VALID,0,VALID,93.2783,VALID,0,VALID,24.1105,VALID,349,VALID,0,
2012-04-29, 03:38:04,VALID,1004.18,VALID,0,VALID,93.3699,VALID,0,VALID,24.1318,VALID,349,VALID,0,
2012-04-29, 03:39:04,VALID,1004.18,VALID,0,VALID,93.4462,VALID,0,VALID,24.1123,VALID,349,VALID,0,
2012-04-29, 03:40:04,VALID,1004.17,VALID,0,VALID,93.5072,VALID,0,VALID,24.1123,VALID,349,VALID,0,
2012-04-29, 03:41:04,VALID,1004.18,VALID,0,VALID,93.5072,VALID,0,VALID,24.1123,VALID,349,VALID,0,
2012-04-29, 03:42:04,VALID,1004.2,VALID,0,VALID,93.5148,VALID,0,VALID,24.0929,VALID,349,VALID,0,
2012-04-29, 03:43:04,VALID,1004.2,VALID,0,VALID,93.5224,VALID,0,VALID,24.0929,VALID,349,VALID,0,
2012-04-29, 03:44:04,VALID,1004.18,VALID,0,VALID,93.5606,VALID,0,VALID,24.0929,VALID,349,VALID,0,
2012-04-29, 03:45:04,VALID,1004.19,VALID,0,VALID,93.5682,VALID,0,VALID,24.1142,VALID,349,VALID,0,
2012-04-29, 03:46:04,VALID,1004.21,VALID,0,VALID,93.614,VALID,0,VALID,24.0929,VALID,349,VALID,0,
2012-04-29, 03:47:04,VALID,1004.17,VALID,0,VALID,93.6826,VALID,0,VALID,24.0929,VALID,349,VALID,0,
2012-04-29, 03:48:04,VALID,1004.18,VALID,0,VALID,93.6216,VALID,0,VALID,24.0929,VALID,349,VALID,0,
2012-04-29, 03:49:04,VALID,1004.21,VALID,0,VALID,93.5911,VALID,0,VALID,24.0947,VALID,349,VALID,0,
2012-04-29, 03:50:04,VALID,1004.21,VALID,0,VALID,93.614,VALID,0,VALID,24.0716,VALID,349,VALID,0,
2012-04-29, 03:51:04,VALID,1004.2,VALID,0,VALID,93.6292,VALID,0,VALID,24.0521,VALID,349,VALID,0,
2012-04-29, 03:52:04,VALID,1004.23,VALID,0,VALID,93.675,VALID,0,VALID,24.0716,VALID,349,VALID,0,
2012-04-29, 03:53:04,VALID,1004.24,VALID,0,VALID,93.7132,VALID,0,VALID,24.0716,VALID,349,VALID,0,
2012-04-29, 03:54:04,VALID,1004.24,VALID,0,VALID,93.7284,VALID,0,VALID,24.0929,VALID,349,VALID,0,
2012-04-29, 03:55:04,VALID,1004.25,VALID,0,VALID,93.7513,VALID,0,VALID,24.0929,VALID,349,VALID,0,
2012-04-29, 03:56:04,VALID,1004.3,VALID,0,VALID,93.7666,VALID,0,VALID,24.0716,VALID,349,VALID,0,
2012-04-29, 03:57:04,VALID,1004.31,VALID,0,VALID,93.7742,VALID,0,VALID,24.0716,VALID,349,VALID,0,